TimePDT,TemperatureF,Dew PointF,Humidity,Sea Level PressureIn,VisibilityMPH,Wind Direction,Wind SpeedMPH,Gust SpeedMPH,PrecipitationIn,Events,Conditions,WindDirDegrees,DateUTC
12:52 AM,81.0,43.0,26,29.60,10.0,NNW,12.7,-,N/A,,Clear,330,2013-04-30 07:52:00
1:52 AM,80.1,41.0,25,29.60,10.0,Variable,3.5,-,N/A,,Clear,0,2013-04-30 08:52:00
2:52 AM,78.1,41.0,27,29.60,10.0,WSW,4.6,-,N/A,,Clear,250,2013-04-30 09:52:00
3:52 AM,71.1,41.0,34,29.61,10.0,South,4.6,-,N/A,,Clear,180,2013-04-30 10:52:00
4:52 AM,71.1,42.1,35,29.64,10.0,WSW,3.5,-,N/A,,Clear,250,2013-04-30 11:52:00
5:52 AM,64.0,43.0,46,29.62,10.0,West,3.5,-,N/A,,Clear,280,2013-04-30 12:52:00
6:52 AM,73.0,41.0,31,29.63,10.0,West,5.8,-,N/A,,Clear,280,2013-04-30 13:52:00
7:52 AM,80.1,37.0,21,29.65,10.0,WNW,13.8,-,N/A,,Clear,300,2013-04-30 14:52:00
8:52 AM,84.0,36.0,18,29.66,10.0,NW,11.5,-,N/A,,Clear,310,2013-04-30 15:52:00
9:52 AM,88.0,36.0,16,29.64,10.0,Variable,3.5,-,N/A,,Clear,0,2013-04-30 16:52:00
10:52 AM,90.0,39.9,17,29.65,10.0,Variable,5.8,-,N/A,,Clear,0,2013-04-30 17:52:00
12:52 PM,95.0,45.0,18,29.62,10.0,SE,11.5,18.4,N/A,,Clear,140,2013-04-30 19:52:00
1:52 PM,95.0,34.0,12,29.62,10.0,SE,8.1,-,N/A,,Clear,140,2013-04-30 20:52:00
2:52 PM,96.1,35.1,12,29.62,10.0,South,4.6,-,N/A,,Clear,180,2013-04-30 21:52:00
3:52 PM,97.0,34.0,11,29.57,10.0,Calm,Calm,-,N/A,,Clear,0,2013-04-30 22:52:00
4:52 PM,98.1,37.9,12,29.55,10.0,NW,11.5,19.6,N/A,,Clear,310,2013-04-30 23:52:00
5:52 PM,93.9,39.9,15,29.55,10.0,NNW,16.1,-,N/A,,Clear,340,2013-05-01 00:52:00
6:52 PM,89.1,46.0,22,29.56,10.0,NNW,18.4,-,N/A,,Clear,340,2013-05-01 01:52:00
7:52 PM,84.0,48.9,29,29.58,10.0,NNW,19.6,27.6,N/A,,Clear,340,2013-05-01 02:52:00
8:52 PM,80.1,50.0,35,29.60,9.0,NNW,23.0,-,N/A,,Clear,340,2013-05-01 03:52:00
9:52 PM,77.0,50.0,39,29.62,10.0,NNW,17.3,26.5,N/A,,Clear,330,2013-05-01 04:52:00
10:52 PM,77.0,48.9,37,29.62,10.0,NNW,20.7,29.9,N/A,,Clear,330,2013-05-01 05:52:00
11:52 PM,75.9,48.9,38,29.64,10.0,NNW,19.6,25.3,N/A,,Clear,330,2013-05-01 06:52:00